Overview Statistics Trail Chart Weather Telemetry Raw packets
 

This is the latest recevied weather packets stored in our database for station/object ED4YAF-13. If no packets are shown the sender has not sent any weather packets the latest 10 day(s).

<< 28 29 30 31 32 33 34 >>
Time Temp. Humidity Pressure Rain* Wind** Luminosity Snow
1787916504 15.56° C 31% 1017.5 hPa - - - -
1787915595 15.56° C 33% 1017.7 hPa - - - -
1787914692 14.44° C 36% 1018.5 hPa - - - -
1787913779 13.89° C 38% 1018.6 hPa - - - -
1787912878 13.33° C 36% 1018.9 hPa - - - -
1787911975 13.33° C 43% 1019 hPa - - - -
1787911066 12.22° C 45% 1020.1 hPa - - - -
1787910146 11.67° C 48% 1020.2 hPa - - - -
1787909239 10.56° C 50% 1020.9 hPa - - - -
1787908338 10° C 52% 1021.5 hPa - - - -
1787907438 8.89° C 57% 1021.9 hPa - - - -
1787906530 8.33° C 63% 1022.3 hPa - - - -
1787905619 7.78° C 68% 1022.5 hPa - - - -
1787904719 7.22° C 73% 1022.7 hPa - - - -
1787903819 6.67° C 77% 1022.9 hPa - - - -
1787902919 6.11° C 78% 1022.9 hPa - - - -
1787902010 6.11° C 79% 1022.8 hPa - - - -
1787901106 5.56° C 79% 1023.1 hPa - - - -
1787900199 5.56° C 79% 1022.6 hPa - - - -
1787898568 5.56° C 79% 1022 hPa - - - -
1787897657 5.56° C 78% 1021.7 hPa - - - -
1787896753 6.11° C 78% 1021.7 hPa - - - -
1787895853 6.11° C 78% 1021.2 hPa - - - -
1787894932 5.56° C 78% 1021.4 hPa - - - -
1787894028 6.11° C 78% 1021.3 hPa - - - -

* Rain since midnight (hover to see other rain measurements)
** Current wind speed in m/s (hover to see current wind gust speed)